Location: ???????
(60.4260°N, 46.9069°E)
Time: 05:39:39
(UTC+00:00)

ADEOS - Pass Details

Date: 30 March 2020
Orbit: 792 x 795 km, 98.9° (Epoch: 05 June)

Event Time Altitude Azimuth Distance (km) Brightness Sun altitude
Rises 00:50:35 0° 19° (NNE) 3,315 7.6 -11.5°
Reaches altitude 10° 00:53:00 10° 25° (NNE) 2,381 6.9 -11.2°
Maximum altitude 00:58:07 51° 101° (E) 1,003 4.5 -10.7°
Drops below altitude 10° 01:03:12 10° 177° (S) 2,364 5.8 -10.1°
Sets 01:05:35 0° 183° (S) 3,289 6.5 -9.8°
